Location: Bats
(43.6587°N, 0.4584°W)
Time: 05:23:59
(UTC+00:00)

Cosmos 1959 Rocket - Visible Passes

Search period start: 19 April 2026 00:00
Search period end: 29 April 2026 00:00
Orbit: 947 x 996 km, 82.9° (Epoch: 18 April)

Date Brightness Start Highest point End Pass type
(mag) Time Alt. Az. Time Alt. Az. Time Alt. Az.
19 Apr 4.5 19:55:30 10° S 20:01:50 81° E 20:08:10 10° N visible
19 Apr 7.1 21:43:53 10° WSW 21:47:54 17° WNW 21:51:55 10° NNW visible
20 Apr 5.1 20:19:44 10° SSW 20:25:59 60° W 20:32:14 10° N visible
21 Apr 6.1 20:44:34 10° SW 20:50:18 35° WNW 20:56:02 10° N visible
22 Apr 4.6 19:22:42 10° S 19:28:58 66° E 19:35:12 10° NNE visible
22 Apr 6.9 21:10:08 10° WSW 21:14:48 21° WNW 21:19:28 10° NNW visible
23 Apr 4.8 19:46:44 10° SSW 19:53:03 74° W 19:59:22 10° N visible
23 Apr 7.4 21:37:06 10° W 21:39:29 12° WNW 21:41:52 10° NW visible
24 Apr 5.8 20:11:20 10° SSW 20:17:18 43° WNW 20:23:16 10° N visible
25 Apr 6.7 20:36:34 10° SW 20:41:43 26° WNW 20:46:52 10° NNW visible
26 Apr 7.3 21:02:49 10° W 21:06:20 15° WNW 21:09:51 10° NNW visible
27 Apr 8.0 04:25:23 10° NE 04:27:45 12° ENE 04:30:07 10° E visible
27 Apr 5.5 19:38:11 10° SSW 19:44:20 54° WNW 19:50:28 10° N visible
28 Apr 6.5 20:03:09 10° SW 20:08:41 32° WNW 20:14:12 10° N visible
